Temperature
6 4 4 4 5 6 6 5 5 5 4 4 3 2 2 1 1 0 0 1 1 1 2 2 2 3 3 3 3 3 3 4 4 4 4 4 4 4 4 4 4 4 4 5
4 4 4 4 5 5 5 5 4 4 3 3 2 2 1 1 0 0 -0 0 1 1 1 1 2 2 2 2 3 3 3 3 3 3 3 3 3 3 3 3 4 4 4 4
5 4 4 4 4 4 4 4 4 4 3 2 2 3 1 0 -0 -0 -0 0 0 1 1 1 1 1 2 2 2 2 2 2 2 2 2 2 2 3 3 3 3 3 3 3
3 3 4 4 3 4 4 3 3 3 2 2 2 2 2 -0 -1 -1 -1 -1 -0 -0 0 0 1 1 1 1 1 1 1 1 1 1 1 1 1 1 2 2 2 2 2 2
2 2 3 3 3 3 3 2 2 2 1 1 0 1 1 -1 -0 -1 -2 -1 -1 -1 -0 -0 -0 0 0 0 0 0 0 0 0 0 0 0 0 1 1 1 1 1 2 2
2 2 2 2 2 2 2 1 1 -0 0 1 0 0 1 -1 -0 -1 -2 -2 -1 -1 -1 -1 -1 -1 -0 -0 -0 -0 -0 -0 -0 -0 -0 -0 -0 -0 0 0 0 1 1 1
2 2 1 2 2 2 2 2 2 2 1 1 -1 -0 0 -1 -3 -3 -3 -2 -2 -1 -1 -1 -1 -1 -1 -1 -1 -1 -1 -1 -1 -1 -1 -1 -1 -1 -1 -1 -0 -0 0 0
3 2 1 1 1 1 1 2 2 2 1 0 -1 -1 -1 -3 -4 -3 -3 -2 -2 -2 -2 -2 -2 -2 -2 -2 -2 -2 -2 -2 -2 -2 -2 -2 -2 -2 -1 -1 -1 -1 -1 -1
2 2 0 0 0 1 0 -0 0 -1 -2 -2 -1 -2 -2 -3 -4 -4 -4 -4 -3 -3 -3 -2 -2 -2 -2 -2 -2 -2 -3 -3 -3 -3 -3 -3 -3 -2 -2 -2 -2 -2 -2 -2
1 1 -0 -1 0 -1 -0 -1 -1 -1 0 0 -0 -2 -1 -2 -3 -4 -5 -4 -4 -3 -3 -3 -3 -3 -3 -3 -3 -3 -3 -3 -3 -3 -3 -3 -3 -3 -3 -3 -3 -3 -3 -3
-0 -0 -1 -1 -2 -1 -1 -1 -2 -2 -2 -1 -1 -0 -2 -3 -4 -5 -5 -4 -4 -4 -3 -3 -3 -3 -3 -4 -4 -4 -4 -4 -4 -4 -4 -4 -4 -4 -4 -4 -4 -4 -4 -3
-2 -2 -2 -2 -3 -3 -2 -2 -2 -1 -2 -3 -3 -1 -3 -5 -5 -5 -5 -5 -4 -4 -4 -4 -4 -4 -4 -4 -4 -4 -5 -5 -5 -5 -5 -5 -5 -5 -4 -4 -4 -4 -4 -4
-2 -2 -1 -0 -2 -3 -3 -4 -4 -4 -4 -5 -3 -1 -4 -6 -6 -5 -5 -5 -5 -4 -4 -4 -4 -4 -4 -5 -5 -5 -5 -5 -5 -5 -5 -5 -5 -5 -5 -5 -5 -5 -5 -5
-2 -3 -1 0 -1 -3 -4 -4 -5 -5 -4 -4 -4 -3 -4 -5 -6 -6 -6 -5 -5 -5 -5 -5 -5 -5 -5 -5 -5 -5 -5 -6 -6 -6 -6 -6 -6 -6 -6 -6 -6 -6 -6 -5
-2 -3 -4 -4 -4 -4 -4 -4 -5 -5 -4 -3 -3 -4 -4 -5 -6 -6 -6 -6 -6 -6 -6 -6 -6 -6 -6 -6 -6 -6 -6 -6 -6 -6 -6 -6 -6 -6 -6 -6 -6 -6 -6 -6
-4 -4 -4 -4 -4 -5 -5 -5 -5 -5 -5 -5 -5 -5 -6 -6 -6 -7 -7 -7 -7 -6 -6 -6 -6 -6 -6 -6 -6 -6 -6 -6 -7 -7 -7 -7 -7 -7 -7 -7 -7 -7 -7 -7
-5 -5 -4 -4 -5 -4 -4 -5 -6 -6 -7 -7 -5 -5 -7 -8 -8 -7 -7 -7 -7 -6 -6 -6 -6 -7 -7 -7 -7 -7 -7 -7 -7 -7 -7 -7 -7 -7 -7 -7 -7 -7 -7 -7
-6 -5 -5 -5 -5 -3 -3 -7 -7 -7 -7 -8 -8 -8 -8 -8 -8 -7 -6 -6 -6 -6 -7 -7 -7 -7 -7 -7 -7 -7 -7 -7 -8 -8 -8 -8 -8 -8 -8 -8 -8 -8 -8 -8
-6 -5 -6 -5 -5 -4 -4 -7 -8 -7 -7 -8 -9 -9 -9 -9 -9 -8 -6 -7 -7 -7 -7 -7 -7 -7 -8 -8 -8 -8 -8 -8 -8 -8 -8 -8 -8 -8 -8 -8 -8 -9 -9 -8
-7 -7 -6 -6 -4 -4 -4 -7 -8 -7 -6 -7 -8 -9 -9 -9 -8 -8 -7 -7 -7 -7 -8 -8 -8 -8 -8 -8 -8 -9 -9 -9 -9 -9 -9 -9 -9 -9 -9 -9 -9 -9 -9 -9
-7 -7 -7 -6 -5 -5 -7 -9 -8 -5 -4 -7 -7 -8 -9 -10 -8 -7 -7 -8 -8 -8 -8 -8 -8 -8 -8 -9 -9 -9 -9 -9 -9 -9 -10 -10 -9 -9 -9 -10 -10 -10 -10 -9
-7 -7 -7 -7 -6 -5 -9 -9 -7 -6 -7 -6 -7 -7 -8 -8 -8 -8 -8 -8 -8 -8 -8 -8 -9 -9 -9 -9 -9 -9 -9 -10 -10 -10 -10 -10 -10 -10 -10 -10 -10 -10 -10 -10
-8 -7 -8 -7 -6 -7 -8 -7 -7 -7 -7 -7 -7 -7 -7 -8 -8 -8 -8 -8 -9 -9 -9 -9 -9 -9 -9 -10 -10 -10 -10 -10 -10 -10 -10 -10 -10 -10 -11 -11 -11 -11 -11 -11
-10 -10 -9 -9 -9 -9 -8 -7 -7 -7 -7 -7 -7 -8 -8 -8 -8 -9 -9 -9 -9 -9 -9 -9 -9 -9 -9 -10 -10 -10 -10 -10 -11 -10 -10 -11 -11 -11 -11 -11 -11 -11 -11 -11
-9 -11 -10 -9 -9 -9 -8 -7 -7 -7 -7 -8 -8 -8 -8 -9 -9 -9 -9 -9 -10 -10 -10 -10 -10 -10 -10 -10 -10 -11 -11 -11 -11 -11 -11 -11 -11 -11 -11 -11 -11 -12 -12 -12
-10 -10 -9 -7 -8 -9 -7 -6 -7 -7 -7 -8 -8 -8 -9 -9 -9 -9 -10 -10 -10 -10 -10 -10 -10 -10 -10 -11 -11 -11 -11 -11 -11 -11 -11 -11 -11 -11 -11 -11 -11 -12 -12 -12
Wind_Speed
4 5 1 3 3 2 3 3 3 3 1 1 5 6 5 2 2 2 2 2 2 1 1 2 3 3 4 5 5 5 5 5 4 3 2 2 2 3 3 4 5 6 6 5
5 0 2 1 2 2 2 2 3 2 2 1 4 7 4 3 3 3 3 3 3 1 1 2 3 4 4 4 4 4 4 4 4 3 2 1 2 1 2 4 5 6 5 5
4 1 0 3 3 2 2 4 4 3 3 2 4 6 3 2 1 1 1 2 2 2 1 1 2 3 3 4 4 4 4 4 4 4 3 3 3 2 3 4 4 6 6 5
2 2 2 3 2 2 4 2 3 2 1 3 1 5 5 3 3 3 3 2 2 1 1 0 1 2 2 3 3 4 4 4 4 4 4 3 2 2 3 3 4 6 7 6
0 1 2 2 1 2 3 1 1 1 2 2 1 3 7 1 4 6 5 4 3 2 1 1 0 0 1 2 3 3 4 5 5 5 4 3 3 2 3 4 4 4 5 6
1 1 1 1 1 2 3 3 4 4 3 3 4 4 7 4 5 4 3 3 3 2 1 0 1 1 2 3 3 4 4 5 5 5 4 3 3 3 4 5 5 4 4 5
2 2 1 1 2 3 3 3 3 4 2 6 3 4 8 4 3 3 3 3 2 2 2 1 0 1 2 2 3 3 4 4 4 4 4 4 3 3 3 4 4 5 4 4
1 3 1 1 1 2 2 4 5 4 5 5 2 7 6 2 2 2 2 2 1 1 1 1 1 1 1 2 3 3 3 3 4 4 4 4 4 3 3 4 4 4 4 4
3 3 1 2 2 3 3 2 3 4 1 3 6 7 6 1 1 1 1 0 1 1 1 1 1 1 2 2 2 3 3 4 4 4 4 4 4 4 4 4 4 4 5 6
4 2 1 2 1 3 2 5 4 4 2 5 6 5 5 4 4 2 1 1 2 1 1 2 2 2 2 2 2 3 3 3 4 4 4 4 4 4 4 4 5 5 6 6
2 3 2 1 2 3 2 2 3 3 3 4 5 7 4 5 3 3 4 2 2 2 2 2 2 3 2 2 2 3 3 3 4 4 4 4 4 4 4 4 4 5 5 6
2 3 2 4 1 0 2 4 5 4 5 4 3 7 2 2 2 2 3 2 1 2 2 2 2 2 3 3 3 3 3 3 4 4 4 4 4 4 4 5 5 5 5 6
4 4 1 3 2 1 1 2 3 3 3 5 5 7 1 1 1 1 1 2 2 2 2 2 2 2 3 3 3 3 3 4 4 4 4 4 4 4 4 5 5 5 5 6
4 3 5 7 5 4 4 4 4 5 5 6 9 9 6 4 4 3 3 3 2 2 2 2 2 3 3 3 3 3 4 4 4 4 3 4 4 4 4 4 5 5 5 6
4 3 4 5 3 3 5 6 7 9 9 9 8 8 10 7 5 4 3 3 3 3 3 3 3 4 4 3 4 4 4 4 4 3 3 4 4 4 4 4 5 5 5 6
3 3 1 3 2 3 6 9 9 10 8 10 9 11 7 4 2 3 3 3 4 5 4 4 4 4 4 4 4 4 4 4 3 3 4 4 4 4 4 4 5 5 5 6
4 4 2 4 2 3 8 8 9 6 7 8 11 10 3 3 4 4 5 5 6 5 5 5 4 4 4 4 4 5 5 3 3 3 4 4 4 4 5 5 5 5 5 6
6 5 3 1 2 6 6 1 5 6 7 8 7 5 4 5 4 4 4 5 6 5 5 5 4 4 4 3 4 4 3 2 3 3 4 4 4 4 5 5 5 5 5 5
3 5 3 2 3 8 6 2 4 5 7 7 9 8 5 2 3 3 3 4 5 5 4 4 4 4 3 4 3 2 2 2 3 4 4 4 4 4 5 5 5 5 5 5
3 3 3 3 3 7 6 2 2 3 5 3 6 6 4 1 2 4 1 1 3 3 3 3 3 2 3 3 2 2 3 3 4 5 5 4 4 4 5 5 5 5 5 6
2 1 4 5 6 8 4 2 3 3 6 2 4 5 5 5 5 3 1 2 2 3 3 3 2 2 3 3 1 2 3 4 5 5 4 4 4 5 5 5 4 4 5 5
7 6 6 5 5 8 3 5 6 6 1 1 2 3 4 5 4 3 2 2 2 3 3 2 2 3 3 2 2 3 5 5 4 4 4 4 4 4 4 4 4 4 4 5
7 7 6 8 8 3 5 6 4 1 2 3 3 3 3 3 4 3 3 3 3 3 3 2 2 4 3 2 2 4 5 4 3 3 4 4 5 4 4 4 4 4 3 4
4 2 4 5 7 5 5 5 4 3 4 3 3 2 3 4 4 4 3 3 3 3 3 2 2 3 4 3 3 4 4 3 3 3 4 4 4 4 4 4 3 3 3 4
5 5 4 6 6 4 5 6 6 4 3 2 2 2 3 3 4 3 3 4 3 3 3 2 3 4 5 4 4 5 4 3 3 4 4 4 4 4 4 4 4 5 5 5
4 6 6 7 5 5 5 3 4 4 4 4 3 3 2 3 4 4 4 4 3 4 3 3 4 5 5 4 5 5 4 3 3 4 4 4 3 3 4 4 5 8 8 10
Wind_Direction
35 73 152 211 202 183 157 173 234 253 358 267 243 256 265 237 185 202 213 204 200 222 344 32 42 46 46 38 34 29 28 24 26 16 11 8 356 350 1 13 11 5 2 2
56 359 254 142 110 113 140 197 253 301 15 285 282 274 258 214 202 202 206 213 206 220 23 28 41 45 40 33 26 23 20 19 21 14 356 339 328 334 344 2 7 2 359 357
147 240 1 116 106 137 212 205 225 252 335 5 325 296 256 249 203 201 197 187 188 198 219 348 29 30 28 21 11 9 7 15 15 17 21 9 14 6 354 349 349 351 350 352
95 339 94 115 136 164 243 209 194 217 318 294 21 286 268 256 269 243 236 215 213 221 206 173 41 22 15 1 6 11 11 19 19 28 31 23 10 343 323 324 327 343 350 349
182 26 72 144 200 158 196 102 138 162 167 300 321 239 280 291 254 247 234 223 215 206 194 194 138 4 1 8 16 15 19 21 20 24 25 23 5 337 331 335 335 337 344 347
92 33 62 162 81 115 127 71 70 69 87 273 228 200 275 232 232 250 232 218 212 205 197 190 32 48 24 17 19 18 20 16 15 17 17 13 357 344 342 340 334 329 330 339
359 358 9 47 84 47 72 83 20 348 332 254 187 215 252 250 247 245 232 226 222 199 180 178 39 9 7 9 10 13 15 5 3 6 5 358 347 336 328 324 322 325 326 324
161 287 309 23 145 162 171 145 164 218 244 280 267 238 256 252 279 291 262 221 212 202 192 214 250 281 322 344 357 3 359 350 352 353 349 351 351 341 325 322 320 314 310 309
176 241 15 28 10 133 138 170 155 136 121 280 266 281 296 215 299 309 289 210 227 230 231 252 284 286 301 327 337 339 338 340 343 343 342 345 346 344 331 327 326 319 318 321
157 214 294 321 59 25 107 143 116 143 203 265 283 271 259 257 253 260 259 255 266 283 299 298 300 299 302 313 328 344 340 334 333 340 336 337 337 337 333 332 329 326 323 328
130 161 311 10 188 197 129 136 141 147 175 194 266 270 232 230 227 225 237 236 234 252 274 289 305 316 322 335 337 335 334 336 337 335 329 328 327 332 335 330 325 324 325 331
135 132 242 248 251 335 190 189 165 183 223 199 224 269 291 222 247 217 228 251 263 265 284 292 300 324 332 328 327 324 324 326 324 323 321 318 321 328 329 324 322 324 328 327
141 130 4 333 337 353 266 222 193 155 151 180 203 261 346 44 337 276 238 269 287 299 300 310 320 315 310 313 315 314 315 315 320 324 324 323 322 322 319 320 324 331 333 331
126 152 191 219 233 190 220 221 188 168 195 220 226 250 275 276 283 290 279 271 279 287 293 306 311 307 308 310 313 312 313 316 321 326 327 323 320 320 321 325 330 332 333 329
125 198 222 249 251 204 224 224 200 206 212 220 240 240 261 257 252 254 257 274 295 299 301 295 294 296 303 311 315 315 313 317 321 324 321 315 320 325 328 329 330 330 331 327
130 181 200 272 247 248 265 249 220 223 231 239 260 269 265 266 241 252 257 260 268 274 279 290 293 294 297 301 307 312 308 309 315 312 309 318 326 327 328 326 328 329 328 325
157 152 169 269 311 323 271 239 208 212 216 205 232 248 259 274 257 246 249 251 251 262 272 281 284 281 286 291 296 295 295 303 308 307 311 319 323 322 322 323 328 325 322 323
155 153 174 263 19 248 245 152 184 210 240 223 239 263 255 254 278 268 243 233 247 257 268 279 284 290 292 292 297 296 300 302 304 306 308 313 316 315 318 321 319 316 315 314
156 157 162 180 253 274 285 217 168 196 269 225 227 250 264 301 332 296 240 215 235 250 260 266 268 273 284 288 292 295 300 304 307 302 300 303 306 306 311 311 309 308 308 308
64 112 153 169 219 248 257 212 178 130 284 243 203 229 237 126 285 272 266 241 262 271 270 274 283 281 281 284 288 284 292 300 292 290 292 295 296 293 293 295 298 299 299 301
145 158 193 206 233 261 256 182 135 177 257 258 198 210 193 199 225 259 299 292 273 276 280 281 279 279 274 276 259 273 285 280 282 291 293 294 292 287 284 290 293 297 300 306
181 182 197 184 218 253 178 145 189 225 276 203 210 210 203 221 251 273 283 286 293 297 296 286 280 285 284 262 235 267 275 278 289 290 290 291 291 291 295 290 294 297 299 304
200 196 194 200 220 256 180 204 230 209 228 235 220 234 207 225 249 261 268 273 280 280 283 280 266 286 291 266 233 257 276 286 289 290 289 289 292 290 291 285 288 295 296 298
238 204 203 248 260 251 233 246 257 234 229 242 232 231 208 223 240 256 265 275 283 287 287 284 280 287 291 285 269 259 277 281 277 284 290 290 289 291 290 288 283 283 282 285
222 180 211 250 270 298 262 235 241 248 253 264 265 233 217 218 244 246 262 271 274 289 291 280 270 273 278 282 277 281 284 275 276 282 286 288 287 286 291 290 278 276 267 269
199 189 202 238 228 218 252 241 221 222 240 243 249 266 252 221 239 252 261 264 268 279 283 284 278 277 281 284 284 285 281 268 268 286 290 287 286 287 289 294 298 295 291 293
Height
1495 1501 1505 1505 1505 1505 1507 1510 1512 1512 1512 1513 1513 1513 1512 1512 1512 1513 1513 1513 1514 1515 1517 1517 1517 1518 1518 1518 1519 1519 1519 1519 1519 1519 1519 1519 1519 1519 1519 1518 1518 1518 1518 1518
1501 1506 1505 1504 1505 1506 1508 1511 1513 1513 1513 1514 1514 1512 1510 1510 1510 1510 1511 1511 1512 1513 1514 1515 1516 1516 1516 1516 1517 1517 1517 1517 1517 1516 1516 1516 1516 1516 1516 1516 1515 1515 1515 1515
1502 1506 1504 1505 1507 1508 1510 1512 1513 1514 1514 1514 1515 1509 1508 1508 1508 1509 1509 1509 1510 1511 1512 1513 1514 1514 1514 1514 1515 1515 1515 1514 1514 1514 1514 1514 1513 1513 1513 1513 1512 1512 1512 1512
1506 1506 1505 1506 1508 1509 1510 1511 1512 1514 1517 1519 1518 1517 1506 1508 1507 1507 1507 1507 1508 1509 1510 1511 1511 1512 1512 1513 1513 1513 1512 1512 1512 1512 1511 1511 1510 1510 1510 1509 1509 1509 1509 1508
1508 1507 1506 1507 1509 1509 1511 1512 1514 1515 1519 1523 1523 1522 1508 1508 1506 1504 1504 1505 1506 1507 1508 1509 1509 1510 1511 1511 1511 1511 1511 1510 1510 1510 1509 1509 1508 1507 1507 1506 1505 1505 1505 1505
1508 1508 1508 1508 1509 1509 1512 1514 1516 1521 1523 1523 1523 1524 1509 1508 1503 1501 1502 1503 1504 1505 1506 1507 1508 1509 1509 1509 1509 1509 1508 1508 1508 1507 1507 1506 1505 1504 1504 1503 1502 1502 1501 1501
1509 1509 1509 1509 1509 1511 1512 1515 1519 1520 1526 1520 1523 1521 1509 1503 1502 1501 1501 1501 1502 1504 1505 1505 1506 1506 1506 1506 1506 1506 1506 1506 1506 1505 1504 1503 1503 1502 1501 1500 1499 1498 1497 1497
1509 1511 1511 1510 1511 1512 1514 1514 1519 1522 1525 1524 1524 1519 1505 1503 1502 1500 1500 1500 1501 1502 1503 1503 1504 1504 1504 1505 1504 1504 1504 1503 1503 1502 1502 1501 1500 1498 1497 1496 1495 1494 1494 1493
1509 1511 1512 1511 1511 1511 1515 1518 1519 1528 1536 1536 1523 1516 1505 1501 1500 1500 1500 1500 1500 1501 1501 1502 1503 1503 1503 1502 1502 1502 1501 1501 1500 1499 1499 1497 1496 1495 1494 1493 1492 1491 1490 1489
1509 1513 1513 1513 1512 1514 1514 1517 1523 1525 1525 1524 1517 1516 1506 1500 1499 1499 1499 1499 1499 1500 1500 1500 1501 1501 1501 1501 1500 1500 1499 1498 1497 1496 1495 1494 1493 1492 1491 1489 1488 1487 1487 1486
1509 1514 1516 1515 1516 1515 1517 1520 1520 1525 1525 1525 1522 1509 1499 1498 1497 1498 1498 1498 1498 1498 1498 1498 1499 1499 1499 1498 1498 1497 1496 1495 1494 1493 1492 1491 1490 1489 1487 1486 1485 1484 1483 1482
1510 1515 1518 1516 1516 1516 1516 1517 1519 1520 1523 1529 1527 1511 1497 1497 1496 1496 1496 1497 1497 1497 1497 1497 1496 1496 1496 1496 1495 1494 1493 1492 1491 1490 1488 1487 1486 1485 1484 1483 1482 1481 1480 1479
1510 1515 1515 1512 1518 1519 1518 1518 1519 1520 1523 1530 1526 1507 1497 1496 1496 1495 1495 1495 1495 1495 1495 1494 1494 1494 1493 1493 1492 1491 1490 1489 1488 1486 1485 1484 1483 1482 1481 1480 1479 1478 1476 1475
1506 1513 1513 1509 1508 1513 1516 1517 1519 1519 1520 1522 1516 1502 1496 1495 1495 1494 1494 1493 1493 1493 1493 1492 1492 1491 1491 1490 1489 1488 1487 1486 1485 1483 1482 1481 1480 1479 1478 1477 1476 1474 1473 1472
1507 1512 1513 1512 1511 1512 1511 1511 1514 1515 1510 1508 1500 1501 1492 1492 1492 1492 1492 1491 1491 1490 1490 1490 1489 1489 1488 1487 1486 1485 1484 1483 1482 1481 1480 1479 1478 1477 1475 1474 1473 1471 1470 1469
1507 1511 1513 1511 1510 1512 1510 1506 1508 1508 1507 1505 1500 1496 1489 1489 1490 1490 1489 1489 1488 1488 1488 1487 1487 1486 1485 1484 1483 1482 1481 1480 1479 1478 1477 1476 1475 1474 1472 1471 1470 1468 1467 1466
1509 1512 1513 1510 1511 1508 1502 1497 1501 1502 1501 1500 1496 1489 1488 1488 1487 1486 1486 1486 1485 1485 1485 1485 1484 1483 1483 1482 1481 1479 1479 1478 1477 1475 1474 1473 1472 1471 1469 1468 1467 1465 1464 1463
1507 1510 1512 1512 1511 1504 1490 1493 1493 1494 1493 1493 1490 1487 1486 1486 1485 1484 1483 1483 1483 1483 1482 1482 1481 1480 1480 1479 1478 1477 1476 1475 1474 1472 1471 1470 1469 1467 1466 1465 1463 1462 1461 1459
1503 1506 1511 1513 1511 1500 1491 1491 1493 1494 1489 1486 1486 1484 1484 1484 1483 1481 1481 1481 1481 1481 1480 1479 1479 1478 1477 1476 1475 1474 1473 1472 1470 1469 1468 1467 1466 1464 1463 1462 1460 1459 1457 1456
1505 1505 1510 1512 1507 1497 1487 1489 1489 1491 1487 1480 1481 1481 1482 1483 1485 1480 1479 1479 1478 1478 1477 1476 1476 1475 1474 1473 1472 1471 1470 1469 1467 1466 1465 1464 1462 1461 1459 1458 1457 1456 1454 1452
1508 1509 1510 1509 1505 1494 1488 1488 1489 1490 1481 1478 1477 1477 1479 1480 1479 1478 1477 1476 1476 1475 1475 1474 1473 1472 1471 1470 1469 1468 1467 1466 1465 1463 1462 1461 1459 1458 1456 1455 1454 1452 1450 1449
1502 1505 1506 1506 1503 1492 1486 1486 1486 1480 1477 1476 1475 1476 1476 1475 1475 1475 1474 1474 1473 1473 1472 1471 1470 1469 1468 1467 1466 1464 1463 1463 1461 1460 1459 1457 1456 1455 1453 1452 1450 1449 1447 1445
1496 1493 1493 1492 1486 1480 1479 1478 1477 1476 1475 1474 1474 1474 1474 1473 1473 1472 1472 1471 1471 1470 1469 1468 1467 1466 1465 1464 1463 1461 1461 1459 1458 1457 1455 1454 1453 1451 1450 1448 1446 1445 1443 1441
1491 1489 1489 1488 1480 1477 1476 1475 1474 1474 1473 1472 1472 1472 1471 1471 1470 1470 1469 1469 1468 1467 1466 1465 1464 1463 1462 1461 1460 1459 1457 1456 1454 1453 1452 1451 1449 1447 1446 1444 1443 1441 1439 1438
1483 1485 1485 1482 1476 1474 1471 1471 1471 1471 1470 1470 1469 1469 1469 1468 1468 1467 1466 1466 1465 1464 1463 1462 1461 1460 1459 1458 1457 1455 1454 1452 1451 1450 1448 1447 1445 1444 1442 1441 1439 1437 1436 1435
1477 1479 1479 1472 1469 1470 1467 1467 1468 1467 1467 1467 1466 1465 1465 1465 1464 1464 1463 1463 1462 1461 1460 1459 1458 1457 1455 1454 1453 1452 1451 1449 1448 1446 1445 1443 1442 1440 1438 1437 1435 1434 1433 1431